Latest Weather Observations for Braidwood

IDN60901

Issued at 8:11 pm EST Tuesday 28 April 2015 (issued every 10 minutes, with the page automatically refreshed every 10 minutes)

About weather observations | Map of Canberra area stations | Latest observations for Canberra area | Other Formats
Station Details ID: 069132 Name: BRAIDWOOD RACECOURSE AWS Lat: -35.43 Lon: 149.78 Height: 665.2 m
Data from the previous 72 hours. | See also: Recent months at Braidwood
Date/Time
EST
Tmp

°C
App
Tmp
°C
Dew
Point
°C
Rel
Hum
%
Delta-T

°C
Wind Press
QNH
hPa
Press
MSL
hPa
Rain
since
9 am
mm
Dir
 
Spd
km/h
Gust
km/h
Spd
kts
Gust
kts
28/08:00pm 4.9 3.5 3.7 92 0.5 CALM 0 0 0 0 1028.2 1027.5 0.0
28/07:30pm 5.2 3.4 3.7 90 0.7 S 2 4 1 2 1028.0 1027.3 0.0
28/07:00pm 5.5 3.0 4.0 90 0.7 S 6 6 3 3 1027.6 1026.8 0.0
28/06:30pm 6.3 3.8 4.5 88 0.8 SSE 7 9 4 5 1027.3 1026.5 0.0
28/06:00pm 7.4 4.9 4.9 84 1.1 SSE 7 9 4 5 1027.0 1026.2 0.0
28/05:30pm 8.8 5.6 5.2 78 1.7 ESE 11 13 6 7 1026.5 1025.7 0.0
28/05:00pm 10.5 7.0 5.5 71 2.4 ESE 13 19 7 10 1026.1 1025.3 0.0
28/04:30pm 12.0 8.2 5.6 65 3.1 ESE 15 19 8 10 1026.0 1025.2 0.0
28/04:00pm 13.0 9.3 4.4 56 4.1 ESE 13 17 7 9 1025.7 1024.9 0.0
28/03:30pm 13.4 10.3 3.8 52 4.5 SSE 9 17 5 9 1025.6 1024.8 0.0
28/03:00pm 12.3 9.0 4.8 60 3.5 ESE 11 15 6 8 1025.6 1024.8 0.0
28/02:30pm 13.9 10.9 3.9 51 4.7 SE 9 20 5 11 1025.5 1024.7 0.0
28/02:00pm 13.2 10.4 3.3 51 4.6 SE 7 11 4 6 1025.5 1024.7 0.0
28/01:30pm 13.1 10.4 2.9 50 4.7 S 6 13 3 7 1025.7 1024.9 0.0
28/01:00pm 13.6 11.4 3.1 49 4.8 SE 4 9 2 5 1026.0 1025.2 0.0
28/12:30pm 12.8 10.1 3.5 53 4.3 SSE 7 13 4 7 1026.4 1025.6 0.0
28/12:00pm 11.9 8.7 2.9 54 4.1 SSE 9 15 5 8 1026.6 1025.8 0.0
28/11:30am 13.0 10.3 3.7 53 4.3 ESE 7 17 4 9 1026.8 1026.1 0.0
28/11:00am 12.7 10.7 4.2 56 4.0 SSE 4 15 2 8 1027.0 1026.2 0.0
28/10:30am 11.6 9.0 3.1 56 3.9 W 6 11 3 6 1027.1 1026.3 0.0
28/10:00am 11.0 8.5 3.5 60 3.4 W 6 9 3 5 1027.2 1026.4 0.0
28/09:30am 10.0 7.4 3.3 63 3.0 SW 6 9 3 5 1027.2 1026.4 0.0
28/09:00am 8.7 6.0 3.5 70 2.3 SW 7 13 4 7 1027.2 1026.4 0.0
28/08:30am 7.3 5.9 3.4 76 1.7 CALM 0 0 0 0 1027.0 1026.2 0.0
28/08:00am 5.0 3.5 3.2 88 0.8 CALM 0 0 0 0 1026.6 1025.8 0.0
28/07:30am 2.4 0.7 1.7 95 0.3 CALM 0 0 0 0 1026.3 1025.5 0.0
28/07:00am 0.6 -1.4 0.0 96 0.2 CALM 0 0 0 0 1026.0 1025.2 0.0
28/06:30am -0.6 -2.8 -1.6 93 0.3 CALM 0 0 0 0 1025.7 1024.9 0.0
28/06:00am 0.2 -1.9 -0.9 92 0.4 CALM 0 0 0 0 1025.2 1024.4 0.0
28/05:30am 1.3 -0.6 0.3 93 0.4 CALM 0 0 0 0 1024.9 1024.1 0.0
28/05:00am 1.8 -0.1 0.5 91 0.5 CALM 0 0 0 0 1024.6 1023.8 0.0
28/04:30am 2.1 0.2 0.6 90 0.6 CALM 0 0 0 0 1024.3 1023.5 0.0
28/04:00am 3.0 1.1 0.4 83 1.0 CALM 0 0 0 0 1024.0 1023.1 0.0
28/03:30am 4.5 2.7 1.0 78 1.4 CALM 0 0 0 0 1023.8 1022.9 0.0
28/03:00am 4.5 2.8 1.7 82 1.2 CALM 0 0 0 0 1023.6 1022.8 0.0
28/02:30am 3.4 1.6 1.4 87 0.8 CALM 0 0 0 0 1023.5 1022.7 0.0
28/02:00am 3.8 2.0 1.2 83 1.0 CALM 0 0 0 0 1023.6 1022.8 0.0
28/01:30am 4.5 2.8 1.9 83 1.1 CALM 0 0 0 0 1023.8 1022.9 0.0
28/01:00am 5.1 3.4 2.1 81 1.3 CALM 0 0 0 0 1023.6 1022.8 0.0
28/12:30am 5.4 3.8 2.4 81 1.3 CALM 0 0 0 0 1023.6 1022.8 0.0
28/12:00am 5.8 4.2 2.6 80 1.4 CALM 0 0 0 0 1023.6 1022.8 0.0
 
Date/Time
EST
Tmp

°C
App
Tmp
°C
Dew
Point
°C
Rel
Hum
%
Delta-T

°C
Wind Press
QNH
hPa
Press
MSL
hPa
Rain
since
9 am
mm
Dir
 
Spd
km/h
Gust
km/h
Spd
kts
Gust
kts
27/11:30pm 6.0 4.5 2.8 80 1.4 CALM 0 0 0 0 1023.8 1022.9 0.0
27/11:00pm 6.5 5.0 2.9 78 1.6 CALM 0 0 0 0 1023.8 1022.9 0.0
27/10:30pm 5.8 4.3 3.0 82 1.2 CALM 0 0 0 0 1023.8 1022.9 0.0
27/10:00pm 5.6 4.1 2.9 83 1.2 CALM 0 0 0 0 1023.6 1022.8 0.0
27/09:30pm 5.8 4.3 3.1 83 1.2 CALM 0 0 0 0 1023.5 1022.7 0.0
27/09:00pm 5.8 4.3 3.1 83 1.2 CALM 0 4 0 2 1023.3 1022.5 0.0
27/08:30pm 4.7 3.0 1.9 82 1.2 CALM 0 0 0 0 1023.2 1022.4 0.0
27/08:00pm 5.7 4.1 2.7 81 1.3 CALM 0 0 0 0 1022.9 1022.1 0.0
27/07:30pm 5.9 3.7 3.2 83 1.2 S 4 6 2 3 1022.4 1021.5 0.0
27/07:00pm 5.3 2.9 2.3 81 1.3 S 4 6 2 3 1022.0 1021.2 0.0
27/06:30pm 6.7 4.0 2.8 76 1.7 S 6 7 3 4 1021.5 1020.7 0.0
27/06:00pm 7.2 4.4 2.3 71 2.1 SSE 6 7 3 4 1021.1 1020.2 0.0
27/05:30pm 8.5 5.5 2.1 64 2.8 S 7 7 4 4 1020.8 1019.9 0.0
27/05:00pm 10.9 7.3 2.7 57 3.7 S 11 15 6 8 1020.3 1019.5 0.0
27/04:30pm 12.4 8.4 2.6 51 4.4 SSE 13 17 7 9 1020.0 1019.1 0.0
27/04:00pm 13.4 9.4 2.9 49 4.8 SSW 13 17 7 9 1019.8 1018.9 0.0
27/03:30pm 13.8 9.7 2.4 46 5.2 SSW 13 22 7 12 1019.6 1018.7 0.0
27/03:00pm 13.8 9.7 2.1 45 5.3 SW 13 19 7 10 1019.4 1018.5 0.0
27/02:30pm 13.8 9.2 1.5 43 5.5 SSW 15 22 8 12 1019.2 1018.3 0.0
27/02:00pm 13.5 8.7 2.4 47 5.1 SSW 17 24 9 13 1019.0 1018.1 0.0
27/01:30pm 13.8 9.6 1.8 44 5.4 SSW 13 22 7 12 1018.8 1018.0 0.0
27/01:00pm 13.7 9.3 2.6 47 5.1 SW 15 22 8 12 1018.6 1017.7 0.0
27/12:30pm 14.1 10.0 2.0 44 5.5 WSW 13 24 7 13 1018.7 1017.8 0.0
27/12:00pm 13.5 9.6 1.2 43 5.5 SSW 11 22 6 12 1019.2 1018.3 0.0
27/11:30am 13.5 10.7 3.3 50 4.7 SW 7 19 4 10 1019.3 1018.4 0.0
27/11:00am 12.7 9.9 2.0 48 4.8 WSW 6 19 3 10 1019.5 1018.6 0.0
27/10:30am 12.8 9.4 4.0 55 4.1 SW 11 17 6 9 1019.4 1018.5 0.0
27/10:00am 11.7 8.2 3.5 57 3.8 SW 11 17 6 9 1019.4 1018.5 0.0
27/09:30am 10.8 9.4 3.6 61 3.3 CALM 0 2 0 1 1019.4 1018.5 0.0
27/09:00am 9.0 6.7 2.6 64 2.8 W 4 6 2 3 1019.4 1018.5 0.0
27/08:30am 8.0 5.7 2.5 68 2.4 NW 4 6 2 3 1019.3 1018.4 0.0
27/08:00am 5.8 4.1 2.1 77 1.6 CALM 0 0 0 0 1019.0 1018.1 0.0
27/07:30am 3.4 1.6 1.4 87 0.8 CALM 0 0 0 0 1018.5 1017.6 0.0
27/07:00am 2.2 0.4 1.0 92 0.5 CALM 0 0 0 0 1018.3 1017.4 0.0
27/06:30am -0.5 -2.8 -2.5 86 0.7 CALM 0 0 0 0 1018.1 1017.2 0.0
27/06:00am 2.1 0.2 0.5 89 0.6 CALM 0 0 0 0 1017.7 1016.8 0.0
27/05:30am 0.1 -2.1 -1.8 87 0.7 CALM 0 0 0 0 1017.7 1016.8 0.0
27/05:00am 1.4 -0.7 -0.7 86 0.8 CALM 0 0 0 0 1017.5 1016.5 0.0
27/04:30am 3.1 0.4 0.2 81 1.1 W 4 7 2 4 1017.2 1016.3 0.0
27/04:00am 1.5 -0.6 -0.9 84 0.9 CALM 0 0 0 0 1017.1 1016.2 0.0
27/03:30am 2.4 0.3 -0.7 80 1.2 CALM 0 6 0 3 1017.0 1016.1 0.0
27/03:00am 3.7 0.5 0.8 81 1.2 W 7 9 4 5 1016.8 1015.9 0.0
27/02:30am 3.6 0.2 -0.4 75 1.6 WSW 7 9 4 5 1016.7 1015.8 0.0
27/02:00am 5.0 1.7 0.2 71 1.9 WSW 7 9 4 5 1016.8 1015.9 0.0
27/01:30am 6.0 2.9 1.2 71 2.0 SW 7 13 4 7 1016.8 1015.9 0.0
27/01:00am 5.4 3.3 1.5 76 1.6 WNW 2 7 1 4 1016.7 1015.8 0.0
27/12:30am 4.8 3.0 1.3 78 1.4 CALM 0 0 0 0 1016.7 1015.8 0.0
27/12:00am 4.5 2.7 1.5 81 1.2 CALM 0 0 0 0 1016.7 1015.8 0.0
 
Date/Time
EST
Tmp

°C
App
Tmp
°C
Dew
Point
°C
Rel
Hum
%
Delta-T

°C
Wind Press
QNH
hPa
Press
MSL
hPa
Rain
since
9 am
mm
Dir
 
Spd
km/h
Gust
km/h
Spd
kts
Gust
kts
26/11:30pm 5.5 3.0 1.4 75 1.7 SW 4 7 2 4 1016.7 1015.8 0.0
26/11:00pm 6.6 3.8 2.1 73 1.9 NW 6 7 3 4 1016.8 1015.9 0.0
26/10:30pm 6.7 3.9 2.0 72 2.0 SW 6 9 3 5 1016.9 1016.0 0.0
26/10:00pm 7.3 4.0 2.4 71 2.1 SW 9 13 5 7 1016.8 1015.9 0.0
26/09:30pm 7.2 4.6 3.1 75 1.8 SW 6 11 3 6 1016.7 1015.8 0.0
26/09:00pm 6.8 3.7 3.6 80 1.4 ESE 9 13 5 7 1016.7 1015.8 0.0
26/08:30pm 8.6 6.2 4.4 75 1.9 SSE 6 11 3 6 1016.4 1015.5 0.0
26/08:00pm 9.3 5.7 4.9 74 2.0 SSW 13 20 7 11 1016.0 1015.0 0.0
26/07:30pm 10.2 7.2 6.0 75 2.0 S 11 20 6 11 1015.4 1014.5 0.0
26/07:00pm 10.4 8.1 5.8 73 2.2 SW 7 11 4 6 1015.1 1014.2 0.0
26/06:30pm 10.4 7.7 5.6 72 2.3 SW 9 11 5 6 1014.7 1013.7 0.0
26/06:00pm 11.8 10.1 5.9 67 2.9 SW 4 6 2 3 1014.4 1013.4 0.0
26/05:30pm 12.9 10.7 6.3 64 3.3 SW 7 11 4 6 1013.9 1013.0 0.0
26/05:00pm 13.4 10.4 5.8 60 3.7 SW 11 17 6 9 1013.7 1012.8 0.0
26/04:30pm 13.9 10.4 5.5 57 4.1 SW 13 19 7 10 1013.2 1012.2 0.0
26/04:00pm 14.0 10.2 5.9 58 4.0 SSW 15 22 8 12 1013.0 1012.0 0.0
26/03:30pm 14.5 9.9 5.8 56 4.3 SW 19 28 10 15 1012.8 1011.8 0.0
26/03:00pm 15.4 11.0 6.7 56 4.4 SW 19 30 10 16 1012.2 1011.2 0.0
26/02:30pm 14.6 10.7 7.2 61 3.8 SSW 17 32 9 17 1012.0 1011.0 0.0
26/02:00pm 15.4 11.1 7.7 60 4.0 SW 20 35 11 19 1011.6 1010.6 0.0
26/01:30pm 14.8 12.2 7.6 62 3.7 SSW 11 19 6 10 1011.4 1010.4 0.0
26/01:00pm 14.8 11.6 8.3 65 3.4 SSE 15 20 8 11 1011.1 1010.1 0.0
26/12:30pm 14.6 10.9 8.1 65 3.4 SSE 17 22 9 12 1010.8 1009.8 0.0
26/12:00pm 14.0 9.9 8.0 67 3.1 S 19 30 10 16 1011.0 1009.9 0.0
26/11:30am 13.1 9.2 7.1 67 3.0 SSW 17 24 9 13 1011.1 1010.1 0.0
26/11:00am 13.3 8.2 7.7 69 2.9 SSW 24 32 13 17 1011.2 1010.2 0.0
26/10:30am 13.2 8.8 7.6 69 2.8 SSW 20 35 11 19 1011.1 1010.1 0.0
26/10:00am 12.3 7.9 7.6 73 2.4 SSW 20 32 11 17 1010.7 1009.7 0.0
26/09:30am 11.9 9.0 8.2 78 1.9 SSW 13 20 7 11 1010.5 1009.5 0.0
26/09:00am 11.0 8.3 7.5 79 1.8 SW 11 17 6 9 1010.3 1009.3 12.8
26/08:30am 10.1 7.4 7.5 84 1.3 SW 11 19 6 10 1010.2 1009.2 12.8
26/08:00am 9.2 6.4 6.8 85 1.2 SSW 11 15 6 8 1009.9 1008.9 12.8
26/07:30am 9.1 6.2 6.7 85 1.2 SSW 11 17 6 9 1009.8 1008.8 12.2
26/07:00am 7.2 5.3 6.5 95 0.3 WNW 6 7 3 4 1009.2 1008.2 12.2
26/06:30am 6.9 5.6 6.0 94 0.4 NW 2 7 1 4 1008.9 1007.9 12.2
26/06:00am 7.0 6.1 6.1 94 0.4 CALM 0 0 0 0 1008.8 1007.8 12.2
26/05:30am 7.4 6.5 6.2 92 0.6 CALM 0 0 0 0 1008.5 1007.5 12.0
26/05:00am 7.3 5.2 5.9 91 0.7 WSW 6 7 3 4 1008.6 1007.6 11.8
26/04:30am 6.8 4.5 5.6 92 0.6 W 7 9 4 5 1008.3 1007.2 11.6
26/04:00am 6.9 4.2 5.7 92 0.6 W 9 11 5 6 1008.1 1007.0 11.6
26/03:30am 5.6 3.3 4.9 95 0.3 WNW 6 11 3 6 1008.1 1007.0 11.6
26/03:00am 5.7 3.8 5.0 95 0.3 NNW 4 6 2 3 1008.3 1007.2 11.6
26/02:30am 5.4 3.4 4.5 94 0.4 NW 4 6 2 3 1008.4 1007.4 11.6
26/02:00am 5.8 3.9 4.9 94 0.4 WSW 4 6 2 3 1008.6 1007.6 11.6
26/01:30am 5.7 3.8 5.0 95 0.3 SW 4 7 2 4 1008.5 1007.5 11.6
26/01:00am 5.0 3.7 4.3 95 0.3 CALM 0 0 0 0 1008.5 1007.5 11.4
26/12:30am 4.7 3.4 4.0 95 0.3 CALM 0 0 0 0 1008.6 1007.6 11.4
26/12:00am 5.3 3.7 4.4 94 0.4 S 2 4 1 2 1008.7 1007.7 11.4
 
Date/Time
EST
Tmp

°C
App
Tmp
°C
Dew
Point
°C
Rel
Hum
%
Delta-T

°C
Wind Press
QNH
hPa
Press
MSL
hPa
Rain
since
9 am
mm
Dir
 
Spd
km/h
Gust
km/h
Spd
kts
Gust
kts
25/11:30pm 5.3 3.7 4.4 94 0.4 NNW 2 6 1 3 1008.6 1007.6 11.4
25/11:00pm 6.3 5.3 5.6 95 0.3 CALM 0 0 0 0 1009.0 1008.0 11.4
25/10:30pm 6.6 4.4 5.4 92 0.6 S 6 9 3 5 1009.2 1008.2 11.4
25/10:00pm 7.7 7.0 6.8 94 0.4 CALM 0 0 0 0 1009.6 1008.5 11.4
25/09:30pm 7.7 7.0 6.8 94 0.4 CALM 0 0 0 0 1009.8 1008.8 11.4
25/09:00pm 7.9 6.5 7.1 95 0.4 N 4 6 2 3 1009.6 1008.5 11.4
25/08:30pm 7.5 5.6 6.8 95 0.3 SE 6 9 3 5 1009.0 1008.0 11.4

Latest Capital City Observations: Canberra | Sydney | Melbourne | Brisbane | Adelaide | Perth | Hobart | Darwin

Other Formats:

Comma delimited format used in spreadsheet applications
http://www.bom.gov.au/fwo/IDN60903/IDN60903.94927.axf

JavaScript Object Notation format (JSON) in row-major order
http://www.bom.gov.au/fwo/IDN60903/IDN60903.94927.json